Location: Unspecified
(40.7945°N, 0.0000°E)
Time: 20:40:27
(UTC+00:00)

Explorer 7 - Pass Details

Date: 22 June 2021
Orbit: 484 x 676 km, 50.3° (Epoch: 30 July)

Event Time Altitude Azimuth Distance (km) Brightness Sun altitude
Rises 20:43:52 0° 256° (WSW) 3,014 11.1 -11.0°
Reaches altitude 10° 20:46:19 10° 263° (W) 2,107 10.3 -11.3°
Maximum altitude 20:51:01 45° 336° (NNW) 915 8.4 -11.9°
Drops below altitude 10° 20:55:40 10° 50° (NE) 2,084 9.7 -12.5°
Sets 20:58:05 0° 56° (ENE) 2,978 10.5 -12.9°
